Weather History for Toledo, OH

Change the Weather History Date:

Monday, March 11, 2013

  Actual Average Record
Temperature  
Mean Temperature 46 °F 36 °F  
Max Temperature 55 °F 45 °F 76 °F (1990)
Min Temperature 37 °F 27 °F 0 °F (1948)
Degree Days  
Heating Degree Days 19 29  
Month to date heating degree days 349 343  
Since 1 July heating degree days 4805 4919  
Cooling Degree Days 0 0  
Month to date cooling degree days 0 0  
Year to date cooling degree days 0 0  
Moisture  
Dew Point 42 °F    
Average Humidity 75    
Maximum Humidity 89    
Minimum Humidity 61    
Precipitation  
Precipitation 0.27 in 0.08 in 1.16 in (1973)
Month to date precipitation 0.30 0.83  
Year to date precipitation 6.74 4.95  
Snow  
Snow 0.00 in 0.20 in - ()
Month to date snowfall T 2.6  
Since 1 July snowfall 22.5 33.1  
Snow Depth 0.00 in    
Sea Level Pressure  
Sea Level Pressure 29.63 in    
Wind  
Wind Speed 14 mph (SSW)    
Max Wind Speed 37 mph    
Max Gust Speed 44 mph    
Visibility 8 miles    
Events Rain    
T = Trace of Precipitation, MM = Missing Value Source: NWS Daily Summary

Daily Weather History Graph

Daily Weather History Graph

Search for Another Location

Airport:

Trip Planner

Search our weather history database for the weather conditions in past years. The results will help you decide how hot, cold, wet, or windy it might be!

Date:

Astronomy

Mar. 11, 2013 Rise Set
Actual Time 7:53 AM EDT 7:37 PM EDT
Civil Twilight 7:25 AM EDT 8:05 PM EDT
Nautical Twilight 6:53 AM EDT 8:37 PM EDT
Astronomical Twilight 6:21 AM EDT 9:10 PM EDT
Moon 7:26 AM EDT (3/11) 7:49 PM EDT (3/11)
Length of Visible Light 12h 39m
Length of Day
11h 44m
Waning Crescent, 0% of the Moon is Illuminated
Mar 11
Waning Crescent
Mar 11
New
Mar 19
First Quarter
Mar 27
Full
Apr 3
Last Quarter

Hourly Weather History & Observations

Time (EDT) Temp. Windchill Dew Point Humidity Pressure Visibility Wind Dir Wind Speed Gust Speed Precip Events Conditions
12:52 AM 55.9 °F - 42.1 °F 60% 29.81 in 10.0 mi SSW 8.1 mph - 0.02 in Rain Light Rain
1:52 AM 54.0 °F - 42.1 °F 64% 29.77 in 10.0 mi South 6.9 mph - 0.01 in   Overcast
2:52 AM 55.0 °F - 44.1 °F 67% 29.76 in 10.0 mi South 13.8 mph 21.9 mph 0.00 in   Overcast
3:52 AM 52.0 °F - 46.0 °F 80% 29.74 in 10.0 mi South 15.0 mph 26.5 mph 0.00 in Rain Light Rain
4:52 AM 52.0 °F - 45.0 °F 77% 29.73 in 10.0 mi South 12.7 mph 19.6 mph 0.00 in   Overcast
5:52 AM 53.6 °F - 44.6 °F 72% 29.71 in 10.0 mi South 12.7 mph 25.3 mph N/A   Overcast
6:52 AM 52.0 °F - 45.0 °F 77% 29.72 in 10.0 mi South 10.4 mph 19.6 mph N/A   Overcast
7:52 AM 53.1 °F - 44.1 °F 71% 29.71 in 10.0 mi South 18.4 mph 25.3 mph N/A   Overcast
8:52 AM 52.0 °F - 45.0 °F 77% 29.71 in 10.0 mi South 13.8 mph 24.2 mph N/A   Overcast
9:52 AM 51.1 °F - 46.0 °F 83% 29.72 in 10.0 mi South 16.1 mph 27.6 mph 0.00 in   Overcast
10:52 AM 51.1 °F - 45.0 °F 80% 29.69 in 10.0 mi South 13.8 mph 23.0 mph 0.00 in   Overcast
11:41 AM 53.6 °F - 44.6 °F 72% 29.66 in 10.0 mi South 10.4 mph 20.7 mph 0.00 in   Overcast
11:52 AM 53.1 °F - 44.1 °F 71% 29.65 in 10.0 mi South 8.1 mph 20.7 mph 0.00 in Rain Light Rain
12:17 PM 53.6 °F - 42.8 °F 67% 29.63 in 10.0 mi South 8.1 mph - 0.00 in   Overcast
12:43 PM 53.6 °F - 42.8 °F 67% 29.62 in 10.0 mi South 10.4 mph 20.7 mph 0.00 in   Overcast
12:52 PM 53.1 °F - 43.0 °F 69% 29.62 in 10.0 mi South 13.8 mph 23.0 mph 0.00 in   Overcast
1:18 PM 51.8 °F - 44.6 °F 76% 29.59 in 10.0 mi SSE 12.7 mph 18.4 mph 0.00 in   Overcast
1:48 PM 51.8 °F - 44.6 °F 76% 29.57 in 9.0 mi South 11.5 mph 20.7 mph 0.00 in Rain Light Rain
1:52 PM 51.8 °F - 44.6 °F 76% 29.57 in 9.0 mi South 11.5 mph 20.7 mph N/A Rain Light Rain
2:21 PM 50.0 °F - 46.4 °F 87% 29.55 in 3.0 mi South 13.8 mph 21.9 mph 0.02 in Rain Rain
2:24 PM 50.0 °F - 46.4 °F 87% 29.55 in 2.5 mi South 10.4 mph 20.7 mph 0.04 in Rain Heavy Rain
2:39 PM 50.0 °F - 46.4 °F 87% 29.54 in 3.0 mi SSW 8.1 mph - 0.08 in Rain Rain
2:47 PM 50.0 °F - 46.4 °F 87% 29.53 in 2.5 mi South 6.9 mph - 0.10 in Rain Rain
2:52 PM 50.0 °F - 46.9 °F 89% 29.53 in 2.5 mi South 5.8 mph - 0.11 in Rain Rain
3:08 PM 50.0 °F - 46.4 °F 87% 29.51 in 6.0 mi South 8.1 mph - 0.02 in Rain Light Rain
3:18 PM 50.0 °F - 46.4 °F 87% 29.51 in 4.0 mi SW 9.2 mph - 0.03 in Rain Rain
3:27 PM 50.0 °F - 46.4 °F 87% 29.49 in 2.0 mi South 6.9 mph - 0.06 in Rain Rain
3:52 PM 51.1 °F - 48.0 °F 89% 29.51 in 2.0 mi SSW 13.8 mph 23.0 mph 0.10 in Rain Light Rain
4:00 PM 51.8 °F - 48.2 °F 88% 29.52 in 2.0 mi SW 19.6 mph 27.6 mph 0.01 in Rain Light Rain
4:23 PM 48.2 °F - 44.6 °F 87% 29.54 in 2.0 mi WSW 24.2 mph 41.4 mph 0.03 in Rain Rain
4:52 PM 48.0 °F - 44.1 °F 86% 29.55 in 6.0 mi WSW 13.8 mph - 0.05 in Rain Light Rain
5:52 PM 46.9 °F - 39.9 °F 77% 29.58 in 10.0 mi WSW 25.3 mph 36.8 mph 0.00 in   Overcast
6:13 PM 46.4 °F 39.5 °F 37.4 °F 71% 29.59 in 10.0 mi WSW 17.3 mph - N/A   Overcast
6:52 PM 45.0 °F 38.2 °F 36.0 °F 71% 29.61 in 10.0 mi WSW 15.0 mph 25.3 mph N/A   Mostly Cloudy
7:52 PM 43.0 °F 35.4 °F 33.1 °F 68% 29.65 in 10.0 mi SW 16.1 mph 28.8 mph N/A   Overcast
8:29 PM 41.0 °F 32.2 °F 33.8 °F 76% 29.66 in 10.0 mi SW 18.4 mph 29.9 mph N/A   Overcast
8:52 PM 39.9 °F 30.2 °F 33.1 °F 77% 29.68 in 10.0 mi WSW 20.7 mph 28.8 mph N/A   Overcast
9:52 PM 37.4 °F 27.8 °F 30.2 °F 75% 29.70 in 10.0 mi SW 17.3 mph 31.1 mph N/A   Overcast
10:52 PM 37.9 °F 27.6 °F 30.0 °F 73% 29.74 in 10.0 mi WSW 20.7 mph 28.8 mph N/A   Overcast
11:52 PM 37.0 °F 28.5 °F 30.0 °F 76% 29.75 in 10.0 mi SW 13.8 mph 26.5 mph N/A   Overcast